When you browse on this site, cookies collect data to enhance your experience and personalize the content and advertising you see.
Visit our Privacy Policy to learn more. By continuing to use the site, you agree to this use of cookies and data.
  • In Portugal
  • List of Countries
  • For 7 days
  • Water Temperature
  • Satellite Maps
  • Weather Map
  • Weather Widgets
  • user-avatar
    Login

    Hourly Weather Shodnevo

    Today, 20 July, Saturday

    Time Temperature Precipitation Wind Pressure Humidity
    00:00 +18°C° 0 mm 1 mps 736 mmHg 90%
    01:00 +18°C° 0 mm 1 mps 737 mmHg 90%
    02:00 +16°C° 0 mm 1 mps 737 mmHg 90%
    03:00 +15°C° 0 mm 0 mps 737 mmHg 90%
    04:00 +16°C° 0 mm 0 mps 738 mmHg 89%
    05:00 +17°C° 0 mm 0 mps 738 mmHg 87%
    06:00 +21°C° 0 mm 1 mps 738 mmHg 85%
    07:00 +22°C° 0 mm 1 mps 738 mmHg 80%
    08:00 +23°C° 0 mm 1 mps 738 mmHg 74%
    09:00 +24°C° 0 mm 2 mps 738 mmHg 68%
    10:00 +25°C° 0 mm 2 mps 738 mmHg 65%
    11:00 +25°C° 0 mm 2 mps 738 mmHg 63%
    12:00 +26°C° 0 mm 2 mps 738 mmHg 60%
    13:00 +26°C° 0.4 mm 2 mps 738 mmHg 63%
    14:00 +26°C° 0.4 mm 2 mps 738 mmHg 66%
    15:00 +25°C° 0.4 mm 3 mps 738 mmHg 69%
    16:00 +25°C° 0.2 mm 3 mps 738 mmHg 73%
    17:00 +24°C° 0.2 mm 3 mps 738 mmHg 77%
    18:00 +22°C° 0.2 mm 3 mps 738 mmHg 80%
    19:00 +21°C° 0 mm 2 mps 738 mmHg 84%
    20:00 +19°C° 0 mm 2 mps 738 mmHg 87%
    21:00 +17°C° 0 mm 2 mps 738 mmHg 91%
    22:00 +17°C° 0 mm 2 mps 738 mmHg 91%
    23:00 +17°C° 0 mm 2 mps 738 mmHg 91%

    Tomorrow, 21 July, Sunday

    Time Temperature Precipitation Wind Pressure Humidity
    00:00 +16°C° 0 mm 2 mps 738 mmHg 91%
    01:00 +16°C° 0 mm 2 mps 738 mmHg 92%
    02:00 +15°C° 0 mm 2 mps 738 mmHg 93%
    03:00 +15°C° 0 mm 2 mps 738 mmHg 94%
    04:00 +16°C° 0 mm 3 mps 738 mmHg 93%
    05:00 +16°C° 0 mm 3 mps 738 mmHg 91%
    06:00 +17°C° 0 mm 3 mps 738 mmHg 90%
    07:00 +18°C° 0 mm 3 mps 738 mmHg 86%
    08:00 +19°C° 0 mm 4 mps 738 mmHg 83%
    09:00 +21°C° 0 mm 4 mps 738 mmHg 79%
    10:00 +21°C° 0.4 mm 5 mps 738 mmHg 78%
    11:00 +22°C° 0.4 mm 5 mps 738 mmHg 77%
    12:00 +22°C° 0.4 mm 6 mps 738 mmHg 77%
    13:00 +22°C° 0.7 mm 6 mps 738 mmHg 76%
    14:00 +22°C° 0.7 mm 6 mps 738 mmHg 76%
    15:00 +22°C° 0.7 mm 6 mps 738 mmHg 76%
    16:00 +22°C° 0.2 mm 5 mps 738 mmHg 79%
    17:00 +21°C° 0.2 mm 4 mps 738 mmHg 82%
    18:00 +21°C° 0.2 mm 3 mps 738 mmHg 84%
    19:00 +19°C° 0 mm 3 mps 737 mmHg 88%
    20:00 +18°C° 0 mm 3 mps 737 mmHg 91%
    21:00 +17°C° 0 mm 3 mps 737 mmHg 94%
    22:00 +16°C° 0 mm 3 mps 737 mmHg 94%
    23:00 +16°C° 0 mm 3 mps 737 mmHg 95%

    Day after tomorrow, 22 July, Monday

    Time Temperature Precipitation Wind Pressure Humidity
    00:00 +16°C° 0 mm 3 mps 737 mmHg 96%
    01:00 +14°C° 0 mm 3 mps 737 mmHg 96%
    02:00 +14°C° 0 mm 3 mps 737 mmHg 97%
    03:00 +14°C° 0 mm 3 mps 737 mmHg 97%
    04:00 +14°C° 0 mm 3 mps 737 mmHg 96%
    05:00 +16°C° 0 mm 3 mps 737 mmHg 95%
    06:00 +17°C° 0 mm 4 mps 737 mmHg 94%
    07:00 +18°C° 0 mm 4 mps 737 mmHg 89%
    08:00 +19°C° 0 mm 4 mps 737 mmHg 85%
    09:00 +20°C° 0 mm 5 mps 736 mmHg 80%
    10:00 +21°C° 0.4 mm 5 mps 736 mmHg 79%
    11:00 +21°C° 0.4 mm 5 mps 736 mmHg 78%
    12:00 +21°C° 0.4 mm 5 mps 736 mmHg 77%
    13:00 +21°C° 0.8 mm 5 mps 736 mmHg 77%
    14:00 +21°C° 0.8 mm 4 mps 736 mmHg 77%
    15:00 +21°C° 0.8 mm 4 mps 736 mmHg 78%
    16:00 +20°C° 0.4 mm 4 mps 736 mmHg 81%
    17:00 +20°C° 0.4 mm 3 mps 736 mmHg 83%
    18:00 +19°C° 0.4 mm 3 mps 736 mmHg 86%
    19:00 +18°C° 0 mm 3 mps 736 mmHg 88%
    20:00 +16°C° 0 mm 3 mps 736 mmHg 91%
    21:00 +14°C° 0 mm 3 mps 736 mmHg 94%
    22:00 +14°C° 0 mm 2 mps 736 mmHg 94%
    23:00 +14°C° 0 mm 2 mps 736 mmHg 95%

    23 July, Tuesday

    Time Temperature Precipitation Wind Pressure Humidity
    00:00 +14°C° 0 mm 2 mps 736 mmHg 95%
    01:00 +14°C° 0 mm 2 mps 736 mmHg 95%
    02:00 +13°C° 0 mm 2 mps 736 mmHg 96%
    03:00 +13°C° 0 mm 2 mps 736 mmHg 96%
    04:00 +14°C° 0 mm 2 mps 736 mmHg 96%
    05:00 +14°C° 0 mm 3 mps 736 mmHg 96%
    06:00 +14°C° 0 mm 3 mps 737 mmHg 95%
    07:00 +17°C° 0.1 mm 3 mps 737 mmHg 91%
    08:00 +18°C° 0.1 mm 4 mps 737 mmHg 86%
    09:00 +19°C° 0.1 mm 4 mps 737 mmHg 82%
    10:00 +20°C° 0.4 mm 4 mps 737 mmHg 80%
    11:00 +20°C° 0.4 mm 5 mps 737 mmHg 77%
    12:00 +21°C° 0.4 mm 5 mps 737 mmHg 75%
    13:00 +21°C° 0.6 mm 5 mps 737 mmHg 76%
    14:00 +21°C° 0.6 mm 5 mps 737 mmHg 77%
    15:00 +21°C° 0.6 mm 5 mps 737 mmHg 78%
    16:00 +21°C° 0.2 mm 4 mps 737 mmHg 81%
    17:00 +20°C° 0.2 mm 3 mps 737 mmHg 84%
    18:00 +20°C° 0.2 mm 3 mps 737 mmHg 87%
    19:00 +19°C° 0.1 mm 3 mps 737 mmHg 89%
    20:00 +17°C° 0.1 mm 2 mps 737 mmHg 92%
    21:00 +16°C° 0.1 mm 2 mps 737 mmHg 95%
    22:00 +16°C° 0 mm 2 mps 737 mmHg 95%
    23:00 +15°C° 0 mm 2 mps 738 mmHg 96%

    24 July, Wednesday

    Time Temperature Precipitation Wind Pressure Humidity
    00:00 +15°C° 0 mm 2 mps 738 mmHg 96%
    01:00 +15°C° 0 mm 1 mps 738 mmHg 96%
    02:00 +14°C° 0 mm 1 mps 738 mmHg 97%
    03:00 +14°C° 0 mm 1 mps 738 mmHg 97%
    04:00 +15°C° 0 mm 1 mps 738 mmHg 96%
    05:00 +16°C° 0 mm 2 mps 738 mmHg 94%
    06:00 +17°C° 0 mm 2 mps 739 mmHg 93%
    07:00 +18°C° 0 mm 2 mps 739 mmHg 89%
    08:00 +19°C° 0 mm 2 mps 739 mmHg 85%
    09:00 +20°C° 0 mm 2 mps 739 mmHg 81%
    10:00 +21°C° 0.1 mm 2 mps 739 mmHg 77%
    11:00 +22°C° 0.1 mm 3 mps 739 mmHg 73%
    12:00 +24°C° 0.1 mm 3 mps 739 mmHg 68%
    13:00 +24°C° 0 mm 3 mps 739 mmHg 69%
    14:00 +24°C° 0 mm 3 mps 739 mmHg 70%
    15:00 +23°C° 0 mm 4 mps 739 mmHg 71%
    16:00 +24°C° 0.1 mm 3 mps 739 mmHg 75%
    17:00 +22°C° 0.1 mm 3 mps 739 mmHg 80%
    18:00 +23°C° 0.1 mm 2 mps 739 mmHg 84%
    19:00 +20°C° 0 mm 2 mps 739 mmHg 86%
    20:00 +20°C° 0 mm 1 mps 739 mmHg 89%
    21:00 +18°C° 0 mm 1 mps 739 mmHg 91%
    22:00 +18°C° 0 mm 1 mps 739 mmHg 92%
    23:00 +18°C° 0 mm 1 mps 739 mmHg 92%

    25 July, Thursday

    Time Temperature Precipitation Wind Pressure Humidity
    00:00 +16°C° 0 mm 1 mps 740 mmHg 92%
    01:00 +16°C° 0 mm 1 mps 739 mmHg 92%
    02:00 +16°C° 0 mm 1 mps 739 mmHg 92%
    03:00 +16°C° 0 mm 1 mps 739 mmHg 92%
    04:00 +18°C° 0 mm 1 mps 740 mmHg 91%
    05:00 +18°C° 0 mm 1 mps 740 mmHg 89%
    06:00 +19°C° 0 mm 1 mps 740 mmHg 87%
    07:00 +21°C° 0.1 mm 1 mps 740 mmHg 83%
    08:00 +22°C° 0.1 mm 1 mps 740 mmHg 79%
    09:00 +23°C° 0.1 mm 2 mps 740 mmHg 75%
    10:00 +24°C° 0.2 mm 2 mps 740 mmHg 72%
    11:00 +25°C° 0.2 mm 2 mps 740 mmHg 68%
    12:00 +25°C° 0.2 mm 3 mps 740 mmHg 65%
    13:00 +25°C° 0 mm 3 mps 740 mmHg 66%
    14:00 +26°C° 0 mm 3 mps 740 mmHg 66%
    15:00 +26°C° 0 mm 3 mps 739 mmHg 66%
    16:00 +25°C° 0.1 mm 3 mps 739 mmHg 71%
    17:00 +24°C° 0.1 mm 2 mps 739 mmHg 75%
    18:00 +24°C° 0.1 mm 2 mps 739 mmHg 79%
    19:00 +21°C° 0 mm 2 mps 739 mmHg 83%
    20:00 +21°C° 0 mm 1 mps 739 mmHg 86%
    21:00 +19°C° 0 mm 1 mps 739 mmHg 89%
    22:00 +19°C° 0 mm 1 mps 739 mmHg 90%
    23:00 +18°C° 0 mm 1 mps 739 mmHg 90%
    Show more